Hourly Data Report for September 21, 2017

All times are specified in Local Standard Time (LST). Add 1 hour to adjust for Daylight Saving Time where and when it is observed.

CLYDE RIVER A
NUNAVUT

70°29'09.000" N
68°31'01.000" W
26.50 m
2400804
71090
YCY

Download Data

Hourly Data (September 2017)
Hourly Data Report for September 21, 2017
Temp Definition
°C
Dew Point Temp Definition
°C
Rel Hum Definition
%
Wind Dir Definition
10's deg

Wind Spd Definition
km/h
Visibility Definition
km
Stn Press Definition
kPa
Hmdx Definition


Wind Chill Definition


Weather Definition


TIME
00:00 Legend Double Dagger -1.0 -3.5 84 32 46 16.1 101.96   -9 Snow
01:00 Legend Double Dagger -1.1 -3.5 84 31 41 16.1 101.95   -9 Snow
02:00 Legend Double Dagger -0.9 -4.0 80 30 39 11.3 101.93   -9 Snow
03:00 Legend Double Dagger -1.9 -2.8 93 33 39 1.2 101.91   -10 Snow
04:00 Legend Double Dagger -1.1 -2.5 90 30 32 16.1 101.89   -8 LegendNANA
05:00 Legend Double Dagger -0.7 -3.2 83 32 34 16.1 101.86   -8 LegendNANA
06:00 Legend Double Dagger -0.7 -3.6 81 32 37 16.1 101.82   -8 LegendNANA
07:00 Legend Double Dagger -0.5 -3.2 82 32 32 16.1 101.83   -7 LegendNANA
08:00 Legend Double Dagger -0.6 -3.0 84 32 37 16.1 101.78   -8 Freezing Rain
09:00 Legend Double Dagger -0.5 -2.0 90 32 34 6.4 101.73   -8 Snow
10:00 Legend Double Dagger -0.7 -1.8 92 34 32 4.0 101.69   -8 Snow
11:00 Legend Double Dagger -0.3 -2.3 87 33 34 16.1 101.64   -7 LegendNANA
12:00 Legend Double Dagger -0.3 -2.7 84 33 34 16.1 101.58   -7 LegendNANA
13:00 Legend Double Dagger -0.6 -2.5 87 33 37 16.1 101.55   -8 LegendNANA
14:00 Legend Double Dagger -0.6 -2.9 84 33 32 16.1 101.52   -7 LegendNANA
15:00 Legend Double Dagger -0.6 -3.3 82 34 35 16.1 101.46   -8 Snow
16:00 Legend Double Dagger -0.9 -2.0 93 33 32 3.2 101.46   -8 Freezing Rain,Snow
17:00 Legend Double Dagger -1.0 -2.1 92 34 30 4.8 101.43   -8 Snow
18:00 Legend Double Dagger -0.8 -2.7 87 35 26 16.1 101.41   -7 LegendNANA
19:00 Legend Double Dagger -1.0 -2.0 93 35 28 4.8 101.36   -8 Snow
20:00 Legend Double Dagger -1.1 -1.9 94 35 22 4.0 101.32   -7 Snow
21:00 Legend Double Dagger -1.1 -2.9 87 34 26 16.1 101.28   -7 LegendNANA
22:00 Legend Double Dagger -0.8 -3.2 84 34 26 16.1 101.26   -7 LegendNANA
23:00 Legend Double Dagger -0.8 -3.5 82 33 30 16.1 101.20   -8 LegendNANA

Notes on Data Quality.

Legend

  • E = Estimated
  • M = Missing
  • NA = Not Available
  • ‡ = Partner data that is not subject to review by the National Climate Archives
Date modified: